Find Starlink 32911

NORAD ID: 63096 Int'l Des: 2025-037 Owner: SPXS Country: US Constellation: starlink operational
LEOCIRCULAR

Current View

Loading 3D Globe...

About Starlink 32911

Starlink 32911 (NORAD 63096) is a starlink constellation satellite (v2 mini) launched Feb 23, 2025 by SPXS of US. It operates in LEO, CIRCULAR orbit with a mass of 730.00 kg.

Upcoming Passes

Passes for default location (London). Set your location on the main map for personalized predictions.

Altitude History

Loading altitude history...

Two-Line Element Set

1 63096U 25037V 26237.36704021 .00002493 00000-0 21661-3 0 9991
2 63096 70.0010 289.3428 0003472 268.8605 91.2156 14.98335354 83854
Epoch: Aug 25, 2026 • Age: 14 hours

Current Status

Altitude 594.0 km
Apogee / Perigee N/A
Velocity 7.56 km/s
Sub-Earth Point -65.44°S, 82.15°W
Launch Date Feb 23, 2025
Age 1.5 years
Type internet

Technical Details

Classification Payload
Mass 730.00 kg
Dry Mass 700.00 kg
Total Mass 730.00 kg
Length 0.30 m
Diameter 4.10 m
Span 29.00 m
Shape Box + pan
Manufacturer SPXS
Bus Type Starlink V2M
Phase Status In Orbit
Owner/State SPXS/US

Most Searched